| time (UTC) | temp F | wind direction | speed MPH | gust MPH | rain 1hr in | rain 24hr in | rain mn in | humidity % | barometer mb |
| 20260509220108 | 90 | 220 | 1.0 | 4.0 | 0.00 | 0.00 | 0.00 | 72 | 1007.9 |
| 20260509214603 | 90 | 220 | 2.0 | 5.0 | 0.00 | 0.00 | 0.00 | 72 | 1007.7 |
| 20260509213059 | 90 | 227 | 3.0 | 5.0 | 0.00 | 0.00 | 0.00 | 73 | 1007.7 |
| 20260509211559 | 89 | 229 | 1.0 | 4.0 | 0.00 | 0.00 | 0.00 | 73 | 1007.7 |
| 20260509210100 | 90 | 144 | 1.0 | 5.0 | 0.00 | 0.00 | 0.00 | 71 | 1007.9 |
| 20260509204606 | 90 | 53 | 1.0 | 3.0 | 0.00 | 0.00 | 0.00 | 72 | 1008.2 |
| 20260509203140 | 89 | 292 | 0.0 | 4.0 | 0.00 | 0.00 | 0.00 | 71 | 1008.3 |
| 20260509201619 | 89 | 294 | 0.0 | 4.0 | 0.00 | 0.00 | 0.00 | 73 | 1008.5 |
| 20260509200108 | 89 | 321 | 2.0 | 3.0 | 0.00 | 0.00 | 0.00 | 74 | 1008.8 |
| 20260509200002 | 89 | 321 | 1.0 | 3.0 | 0.00 | 0.00 | 0.00 | 72 | 1008.8 |
| 20260509194559 | 89 | 323 | 2.0 | 4.0 | 0.00 | 0.00 | 0.00 | 75 | 1008.9 |
| 20260509193133 | 88 | 238 | 2.0 | 5.0 | 0.00 | 0.00 | 0.00 | 73 | 1009.0 |
| 20260509191615 | 87 | 213 | 0.0 | 3.0 | 0.00 | 0.00 | 0.00 | 76 | 1009.0 |
| 20260509190057 | 86 | 213 | 0.0 | 4.0 | 0.00 | 0.00 | 0.00 | 75 | 1009.0 |
| 20260509184601 | 85 | 209 | 0.0 | 3.0 | 0.00 | 0.03 | 0.00 | 77 | 1009.1 |
| 20260509183058 | 85 | 209 | 2.0 | 5.0 | 0.00 | 0.03 | 0.00 | 78 | 1009.5 |
| 20260509181602 | 84 | 209 | 1.0 | 5.0 | 0.00 | 0.03 | 0.00 | 79 | 1009.7 |
| 20260509180106 | 84 | 144 | 1.0 | 3.0 | 0.00 | 0.03 | 0.00 | 80 | 1009.9 |
| 20260509174612 | 84 | 163 | 1.0 | 6.0 | 0.00 | 0.03 | 0.00 | 82 | 1010.0 |
| 20260509173105 | 84 | 194 | 1.0 | 6.0 | 0.00 | 0.03 | 0.00 | 83 | 1010.5 |
| 20260509171559 | 83 | 160 | 2.0 | 5.0 | 0.00 | 0.03 | 0.00 | 85 | 1010.6 |
| 20260509170001 | 82 | 116 | 0.0 | 2.0 | 0.00 | 0.03 | 0.00 | 88 | 1010.9 |
| 20260509164609 | 81 | 117 | 0.0 | 3.0 | 0.00 | 0.03 | 0.00 | 90 | 1010.8 |
| 20260509163100 | 80 | 132 | 0.0 | 2.0 | 0.00 | 0.03 | 0.00 | 90 | 1010.8 |
| 20260509161601 | 79 | 132 | 0.0 | 2.0 | 0.00 | 0.03 | 0.00 | 91 | 1010.8 |
| 20260509160058 | 79 | 132 | 0.0 | 2.0 | 0.00 | 0.03 | 0.00 | 91 | 1010.6 |
| 20260509160002 | 79 | 132 | 0.0 | 2.0 | 0.00 | 0.03 | 0.00 | 91 | 1010.6 |
| 20260509154600 | 79 | 132 | 0.0 | 2.0 | 0.00 | 0.04 | 0.00 | 91 | 1010.8 |
| 20260509153105 | 78 | 132 | 0.0 | 1.0 | 0.00 | 0.04 | 0.00 | 92 | 1010.7 |
| 20260509151608 | 78 | 132 | 0.0 | 3.0 | 0.00 | 0.04 | 0.00 | 93 | 1010.7 |
| 20260509150058 | 78 | 132 | 0.0 | 1.0 | 0.00 | 0.04 | 0.00 | 93 | 1010.4 |
| 20260509144604 | 77 | 132 | 0.0 | 2.0 | 0.00 | 0.04 | 0.00 | 94 | 1010.4 |
| 20260509143100 | 76 | 132 | 0.0 | 0.0 | 0.00 | 0.04 | 0.00 | 94 | 1010.1 |
| 20260509141558 | 76 | 132 | 0.0 | 2.0 | 0.00 | 0.04 | 0.00 | 94 | 1009.8 |
| 20260509140059 | 76 | 132 | 0.0 | 2.0 | 0.00 | 0.04 | 0.00 | 94 | 1009.4 |
| 20260509140001 | 76 | 132 | 0.0 | 2.0 | 0.00 | 0.04 | 0.00 | 94 | 1009.4 |
| 20260509133103 | 76 | 132 | 0.0 | 2.0 | 0.00 | 0.04 | 0.00 | 95 | 1010.6 |
| 20260509131603 | 76 | 132 | 0.0 | 0.0 | 0.00 | 0.04 | 0.00 | 95 | 1010.9 |
| 20260509130105 | 76 | 132 | 0.0 | 2.0 | 0.00 | 0.04 | 0.00 | 95 | 1010.8 |
| 20260509124557 | 76 | 132 | 0.0 | 2.0 | 0.00 | 0.04 | 0.00 | 95 | 1010.7 |
| 20260509123057 | 76 | 132 | 1.0 | 2.0 | 0.00 | 0.04 | 0.00 | 95 | 1010.7 |
| 20260509121558 | 75 | 132 | 0.0 | 0.0 | 0.00 | 0.04 | 0.00 | 95 | 1010.7 |
| 20260509120101 | 75 | 132 | 0.0 | 0.0 | 0.00 | 0.04 | 0.00 | 95 | 1010.7 |
| 20260509114558 | 75 | 132 | 0.0 | 0.0 | 0.00 | 0.04 | 0.00 | 94 | 1010.6 |
| 20260509113109 | 75 | 132 | 0.0 | 0.0 | 0.00 | 0.04 | 0.00 | 94 | 1010.4 |
| 20260509111605 | 75 | 132 | 0.0 | 1.0 | 0.00 | 0.04 | 0.00 | 94 | 1010.1 |
| 20260509110058 | 75 | 132 | 0.0 | 0.0 | 0.00 | 0.04 | 0.00 | 94 | 1010.1 |
| 20260509110001 | 75 | 132 | 0.0 | 0.0 | 0.00 | 0.04 | 0.00 | 94 | 1010.1 |
| 20260509104600 | 75 | 132 | 0.0 | 0.0 | 0.00 | 0.04 | 0.00 | 94 | 1009.7 |
| 20260509103104 | 75 | 132 | 0.0 | 0.0 | 0.00 | 0.04 | 0.00 | 94 | 1009.7 |
| 20260509100059 | 75 | 132 | 0.0 | 0.0 | 0.00 | 0.04 | 0.00 | 94 | 1009.9 |
| 20260509091607 | 76 | 132 | 0.0 | 0.0 | 0.00 | 0.04 | 0.00 | 94 | 1009.4 |
| 20260509090058 | 76 | 132 | 0.0 | 0.0 | 0.00 | 0.04 | 0.00 | 94 | 1010.0 |
| 20260509084559 | 76 | 132 | 0.0 | 0.0 | 0.00 | 0.04 | 0.00 | 94 | 1009.9 |
| 20260509083058 | 76 | 132 | 0.0 | 0.0 | 0.00 | 0.04 | 0.00 | 94 | 1009.7 |
| 20260509081603 | 76 | 132 | 0.0 | 1.0 | 0.00 | 0.04 | 0.00 | 94 | 1009.6 |
| 20260509074559 | 76 | 142 | 0.0 | 1.0 | 0.00 | 0.04 | 0.00 | 94 | 1009.4 |
| 20260509073058 | 76 | 164 | 0.0 | 4.0 | 0.00 | 0.04 | 0.00 | 94 | 1009.2 |
| 20260509071600 | 76 | 128 | 0.0 | 1.0 | 0.00 | 0.04 | 0.00 | 94 | 1009.7 |
| 20260509070105 | 76 | 119 | 0.0 | 2.0 | 0.00 | 0.04 | 0.00 | 94 | 1010.0 |
| 20260509064600 | 76 | 77 | 0.0 | 0.0 | 0.00 | 0.04 | 0.00 | 94 | 1010.3 |
| 20260509063058 | 76 | 77 | 0.0 | 1.0 | 0.00 | 0.04 | 0.00 | 94 | 1010.2 |
| 20260509061615 | 76 | 77 | 0.0 | 2.0 | 0.00 | 0.04 | 0.00 | 94 | 1010.3 |
| 20260509060133 | 76 | 77 | 0.0 | 2.0 | 0.00 | 0.04 | 0.00 | 94 | 1010.3 |
| 20260509054602 | 75 | 77 | 0.0 | 1.0 | 0.00 | 0.04 | 0.00 | 94 | 1010.5 |
| 20260509053055 | 75 | 77 | 0.0 | 3.0 | 0.00 | 0.04 | 0.00 | 94 | 1010.4 |
| 20260509051558 | 75 | 75 | 1.0 | 3.0 | 0.00 | 0.04 | 0.00 | 94 | 1010.3 |
| 20260509050136 | 75 | 87 | 0.0 | 3.0 | 0.00 | 0.04 | 0.00 | 94 | 1010.3 |
| 20260509044603 | 75 | 89 | 0.0 | 3.0 | 0.00 | 0.04 | 0.04 | 94 | 1010.4 |
| 20260509043058 | 75 | 90 | 0.0 | 1.0 | 0.00 | 0.04 | 0.04 | 93 | 1010.4 |
| 20260509041558 | 75 | 90 | 0.0 | 2.0 | 0.00 | 0.04 | 0.04 | 93 | 1010.4 |
| 20260509034558 | 75 | 94 | 0.0 | 2.0 | 0.00 | 0.04 | 0.04 | 93 | 1010.3 |
| 20260509033059 | 75 | 66 | 0.0 | 3.0 | 0.00 | 0.04 | 0.04 | 93 | 1010.1 |
| 20260509031559 | 75 | 67 | 1.0 | 4.0 | 0.00 | 0.04 | 0.04 | 93 | 1009.8 |
| 20260509030059 | 75 | 61 | 0.0 | 5.0 | 0.00 | 0.04 | 0.04 | 93 | 1009.9 |
| 20260509024601 | 75 | 61 | 0.0 | 4.0 | 0.00 | 0.04 | 0.04 | 92 | 1010.0 |
| 20260509023104 | 75 | 57 | 1.0 | 5.0 | 0.00 | 0.04 | 0.04 | 92 | 1009.6 |
| 20260509021558 | 75 | 79 | 0.0 | 2.0 | 0.00 | 0.04 | 0.04 | 93 | 1009.6 |
| 20260509014558 | 75 | 84 | 0.0 | 2.0 | 0.00 | 0.04 | 0.04 | 92 | 1009.3 |
| 20260509013102 | 75 | 84 | 0.0 | 3.0 | 0.00 | 0.04 | 0.04 | 92 | 1009.3 |
| 20260509011559 | 75 | 92 | 0.0 | 3.0 | 0.00 | 0.04 | 0.04 | 92 | 1009.1 |
| 20260509004559 | 75 | 64 | 1.0 | 3.0 | 0.00 | 0.04 | 0.04 | 92 | 1008.9 |
| 20260509003106 | 75 | 68 | 0.0 | 3.0 | 0.00 | 0.04 | 0.04 | 92 | 1009.0 |
| 20260509001558 | 75 | 74 | 0.0 | 3.0 | 0.00 | 0.04 | 0.04 | 92 | 1009.0 |
| 20260509001504 | 75 | 74 | 0.0 | 4.0 | 0.00 | 0.04 | 0.04 | 92 | 1009.0 |
| 20260509000110 | 75 | 65 | 0.0 | 3.0 | 0.00 | 0.04 | 0.04 | 92 | 1009.2 |
| 20260508234600 | 75 | 67 | 0.0 | 4.0 | 0.00 | 0.04 | 0.04 | 92 | 1009.2 |
| 20260508233104 | 75 | 75 | 1.0 | 5.0 | 0.00 | 0.04 | 0.04 | 92 | 1008.9 |
| 20260508231600 | 75 | 62 | 0.0 | 2.0 | 0.00 | 0.04 | 0.04 | 92 | 1009.2 |
| 20260508230003 | 75 | 60 | 0.0 | 4.0 | 0.00 | 0.04 | 0.04 | 91 | 1009.4 |
| 20260508224600 | 76 | 48 | 0.0 | 2.0 | 0.00 | 0.04 | 0.04 | 91 | 1009.3 |
| 20260508223100 | 76 | 60 | 2.0 | 5.0 | 0.00 | 0.04 | 0.04 | 91 | 1009.2 |
| 20260508221604 | 76 | 63 | 0.0 | 3.0 | 0.00 | 0.04 | 0.04 | 90 | 1009.3 |